Change the Weather History Date:

Wednesday, October 23, 2013

  Actual Average Record
Temperature  
Mean Temperature 44 °F 41 °F  
Max Temperature 52 °F 52 °F 80 °F (2003)
Min Temperature 35 °F 29 °F 8 °F (1981)
Degree Days  
Heating Degree Days 21 24  
Month to date heating degree days 582 487  
Since 1 July heating degree days 901 973  
Cooling Degree Days 0 0  
Month to date cooling degree days 0 0  
Year to date cooling degree days 187 177  
Moisture  
Dew Point 31 °F    
Average Humidity 68    
Maximum Humidity 92    
Minimum Humidity 44    
Precipitation  
Precipitation 0.00 in 0.05 in 2.03 in (1941)
Month to date precipitation 3.46 1.27  
Year to date precipitation 20.71 17.76  
Sea Level Pressure  
Sea Level Pressure 30.10 in    
Wind  
Wind Speed 7 mph (NW)    
Max Wind Speed 16 mph    
Max Gust Speed 23 mph    
Visibility 10 miles    
Events      
T = Trace of Precipitation, MM = Missing Value Source: NWS Daily Summary

Daily Weather History Graph

Daily Weather History Graph

Search for Another Location

Airport or City:

Trip Planner

Search our weather history database for the weather conditions in past years. The results will help you decide how hot, cold, wet, or windy it might be!

Date:

Astronomy

Oct. 23, 2013 Rise Set
Actual Time 7:19 AM MDT 5:57 PM MDT
Civil Twilight 6:49 AM MDT 6:26 PM MDT
Nautical Twilight 6:16 AM MDT 7:00 PM MDT
Astronomical Twilight 5:42 AM MDT 7:33 PM MDT
Moon 9:26 PM MDT (10/23) 11:42 AM MDT (10/23)
Length of Visible Light 11h 37m
Length of Day
10h 38m
Waning Gibbous, 79% of the Moon is Illuminated
Oct 23
Waning Gibbous
Oct 26
Last Quarter
Nov 3
New
Nov 9
First Quarter
Nov 17
Full

Hourly Weather History & Observations

Time (MDT) Temp. Windchill Dew Point Humidity Pressure Visibility Wind Dir Wind Speed Gust Speed Precip Events Conditions
12:53 AM 39.0 °F 33.4 °F 35.1 °F 86% 30.05 in 10.0 mi West 8.1 mph - N/A   Overcast
1:53 AM 37.9 °F 30.9 °F 34.0 °F 86% 30.03 in 10.0 mi West 10.4 mph - N/A   Clear
2:53 AM 41.0 °F 35.8 °F 33.1 °F 73% 30.00 in 10.0 mi West 8.1 mph - N/A   Mostly Cloudy
3:53 AM 42.1 °F 39.2 °F 33.1 °F 70% 30.00 in 10.0 mi WNW 4.6 mph - N/A   Overcast
4:53 AM 46.0 °F 41.0 °F 30.9 °F 56% 29.98 in 10.0 mi NW 10.4 mph 16.1 mph N/A   Overcast
5:53 AM 46.0 °F 41.4 °F 28.9 °F 51% 30.01 in 10.0 mi NW 9.2 mph 17.3 mph N/A   Scattered Clouds
6:53 AM 46.0 °F 41.9 °F 27.0 °F 47% 30.03 in 10.0 mi NNW 8.1 mph - N/A   Partly Cloudy
7:53 AM 46.0 °F 41.4 °F 28.0 °F 50% 30.03 in 10.0 mi North 9.2 mph 18.4 mph N/A   Clear
8:53 AM 46.0 °F 41.9 °F 28.0 °F 50% 30.05 in 10.0 mi North 8.1 mph - N/A   Clear
9:53 AM 46.0 °F 40.2 °F 30.0 °F 54% 30.07 in 10.0 mi North 12.7 mph 19.6 mph N/A   Clear
10:53 AM 46.0 °F 41.4 °F 30.0 °F 54% 30.10 in 10.0 mi NNW 9.2 mph 16.1 mph N/A   Clear
11:53 AM 50.0 °F - 30.0 °F 46% 30.09 in 10.0 mi NW 9.2 mph 16.1 mph N/A   Mostly Cloudy
12:53 PM 48.9 °F - 30.0 °F 48% 30.11 in 10.0 mi WNW 8.1 mph 16.1 mph N/A   Overcast
1:53 PM 51.1 °F - 30.0 °F 44% 30.09 in 10.0 mi North 8.1 mph - N/A   Mostly Cloudy
2:53 PM 50.0 °F - 30.0 °F 46% 30.08 in 10.0 mi Variable 5.8 mph 20.7 mph N/A   Overcast
3:53 PM 48.9 °F - 30.0 °F 48% 30.10 in 10.0 mi North 9.2 mph 17.3 mph N/A   Overcast
4:53 PM 46.9 °F - 30.9 °F 54% 30.10 in 10.0 mi Variable 4.6 mph - N/A   Overcast
5:53 PM 45.0 °F 41.2 °F 30.9 °F 58% 30.11 in 10.0 mi Variable 6.9 mph - N/A   Overcast
6:53 PM 43.0 °F 39.5 °F 30.9 °F 62% 30.14 in 10.0 mi North 5.8 mph - N/A   Overcast
7:53 PM 41.0 °F - 30.9 °F 67% 30.16 in 10.0 mi Calm Calm - N/A   Overcast
8:53 PM 39.9 °F - 30.9 °F 70% 30.17 in 10.0 mi Calm Calm - N/A   Overcast
9:53 PM 39.9 °F - 28.9 °F 65% 30.18 in 10.0 mi Calm Calm - N/A   Overcast
10:53 PM 37.0 °F - 34.0 °F 89% 30.20 in 10.0 mi Calm Calm - N/A   Overcast
11:27 PM 35.6 °F 31.7 °F 35.6 °F 100% 30.22 in 10.0 mi South 4.6 mph - N/A   Overcast
11:36 PM 35.6 °F 32.8 °F 35.6 °F 100% 30.23 in 10.0 mi South 3.5 mph - N/A   Overcast
11:53 PM 36.0 °F 33.3 °F 34.0 °F 93% 30.20 in 8.0 mi South 3.5 mph - N/A   Overcast